TimeMDT,TemperatureF,Dew PointF,Humidity,Sea Level PressureIn,VisibilityMPH,Wind Direction,Wind SpeedMPH,Gust SpeedMPH,PrecipitationIn,Events,Conditions,WindDirDegrees,DateUTC
12:53 AM,69.1,52.0,54,30.03,10.0,South,8.1,-,N/A,,Clear,190,2013-07-10 06:53:00
1:53 AM,68.0,52.0,56,30.03,10.0,Calm,Calm,-,N/A,,Clear,0,2013-07-10 07:53:00
2:53 AM,66.0,51.1,59,30.01,10.0,Calm,Calm,-,N/A,,Clear,0,2013-07-10 08:53:00
3:53 AM,63.0,51.1,65,30.01,10.0,Calm,Calm,-,N/A,,Clear,0,2013-07-10 09:53:00
4:53 AM,61.0,51.1,70,30.01,10.0,WSW,3.5,-,N/A,,Clear,250,2013-07-10 10:53:00
5:53 AM,60.1,48.0,64,30.01,10.0,NNW,4.6,-,N/A,,Clear,330,2013-07-10 11:53:00
6:53 AM,63.0,51.1,65,30.01,10.0,WNW,3.5,-,N/A,,Clear,300,2013-07-10 12:53:00
7:53 AM,68.0,50.0,52,30.01,10.0,West,3.5,-,N/A,,Clear,280,2013-07-10 13:53:00
8:53 AM,73.9,50.0,43,30.00,10.0,Calm,Calm,-,N/A,,Clear,0,2013-07-10 14:53:00
9:53 AM,77.0,50.0,39,29.98,10.0,Calm,Calm,-,N/A,,Clear,0,2013-07-10 15:53:00
10:53 AM,82.0,51.1,34,29.97,10.0,NW,4.6,-,N/A,,Clear,310,2013-07-10 16:53:00
11:53 AM,88.0,48.0,25,29.94,10.0,Calm,Calm,-,N/A,,Clear,0,2013-07-10 17:53:00
12:53 PM,89.1,46.0,22,29.92,10.0,NE,4.6,-,N/A,,Clear,40,2013-07-10 18:53:00
1:53 PM,93.0,41.0,16,29.89,10.0,Variable,3.5,-,N/A,,Clear,0,2013-07-10 19:53:00
2:53 PM,95.0,37.0,13,29.86,10.0,Calm,Calm,-,N/A,,Clear,0,2013-07-10 20:53:00
3:53 PM,96.1,33.1,11,29.85,10.0,Calm,Calm,-,N/A,,Clear,0,2013-07-10 21:53:00
4:53 PM,95.0,33.1,11,29.84,10.0,Variable,5.8,17.3,N/A,,Clear,0,2013-07-10 22:53:00
5:53 PM,96.1,27.0,9,29.82,10.0,NNE,5.8,-,N/A,,Clear,20,2013-07-10 23:53:00
6:53 PM,96.1,28.9,9,29.80,10.0,North,4.6,-,N/A,,Clear,360,2013-07-11 00:53:00
7:53 PM,93.0,32.0,12,29.79,10.0,Calm,Calm,-,N/A,,Clear,0,2013-07-11 01:53:00
8:53 PM,89.1,32.0,13,29.78,10.0,Calm,Calm,-,N/A,,Clear,0,2013-07-11 02:53:00
9:53 PM,84.9,36.0,17,29.78,10.0,Calm,Calm,-,N/A,,Clear,0,2013-07-11 03:53:00
10:53 PM,79.0,44.1,29,29.79,10.0,SE,3.5,-,N/A,,Clear,130,2013-07-11 04:53:00
11:53 PM,78.1,39.9,25,29.79,10.0,SE,3.5,-,N/A,,Clear,140,2013-07-11 05:53:00